SPACEBEENZ-15 (52395 NORAD) Tracking and Keplerian Element Data

This shows tracking and keplerian element data for the satellite.

Feedback or suggestion? Click here.




ElementValue
Catalog52395
NameSPACEBEENZ-15
Epoch Orbit812
Epoch Day166.95272448
Epoch Year2022
RAAN251.8971
Inclination97.4503
Eccentricity0.001001
Argument of Perigee170.1243
Mean Anonmoly190.0187
Mean Motion15.13723416
Decay Rate0.00014008
L11 52395U 22047B 22166.95272448 .00014008 00000+0 77941-3 0 9990
L22 52395 97.4503 251.8971 0010010 170.1243 190.0187 15.13723416 8127

Live tracking and technical data element details for SPACEBEENZ-15 (NORAD 52395). SPACEBEENZ-15 can be tracked NOW for your location showing map with azimuth and elevation plus other details from your city location.

Track the satellite on the map from your city or location and see movement details for azimuth, elevation, latitude, longitude, range, height, and movement on the map or in text.







IsCatalogInMostPopularTable: catalog: 52395, numindb: 1
Update: records affected: 1



GetName: 52395 SPACEBEENZ-15

Hit Count: updated at: Mon, 27 Jun 2022 04:55:53 GMT